N844WH KAIA-KACV

Flight info

Callsign N844WH
Flight time N/A
Altitude 43000
Route KURSE Q122 LCU SDO FVI
Aircraft C700/L-VGDW/C

Departure

Time N/A
Airport Alliance Municipal Airport (KAIA)

Arrival

Time 2026-04-18 12:16
Airport California Redwood Coast-Humboldt County Airport (KACV)
Time Latitude Longitude Altitude Speed Heading
2026-04-18 12:01 40.99639 -123.27658 16133 ft 389 kts 269°
2026-04-18 12:02 40.99570 -123.31254 16137 ft 391 kts 269°
2026-04-18 12:02 40.99499 -123.34834 16136 ft 385 kts 269°
2026-04-18 12:02 40.99435 -123.38220 15578 ft 358 kts 269°
2026-04-18 12:02 40.99371 -123.41507 14345 ft 358 kts 269°
2026-04-18 12:03 40.99303 -123.44766 13180 ft 354 kts 269°
2026-04-18 12:03 40.99238 -123.48027 12151 ft 351 kts 269°
2026-04-18 12:03 40.99177 -123.51247 12012 ft 361 kts 270°
2026-04-18 12:03 40.99600 -123.54546 12005 ft 369 kts 289°
2026-04-18 12:04 41.00758 -123.57560 12000 ft 372 kts 301°
2026-04-18 12:04 41.02310 -123.60284 11725 ft 361 kts 309°
2026-04-18 12:04 41.03942 -123.62659 11353 ft 338 kts 312°
2026-04-18 12:04 41.05536 -123.64843 10972 ft 317 kts 313°
2026-04-18 12:05 41.07040 -123.66857 10605 ft 301 kts 314°
2026-04-18 12:05 41.08483 -123.68776 10236 ft 288 kts 314°
2026-04-18 12:05 41.09868 -123.70613 9850 ft 280 kts 314°
2026-04-18 12:05 41.11254 -123.72450 9446 ft 279 kts 314°
2026-04-18 12:06 41.12626 -123.74276 9052 ft 281 kts 314°
2026-04-18 12:06 41.14008 -123.76119 8656 ft 282 kts 314°
2026-04-18 12:06 41.15350 -123.77991 8276 ft 281 kts 307°
2026-04-18 12:06 41.16335 -123.80198 7895 ft 279 kts 296°
2026-04-18 12:07 41.17170 -123.82537 7519 ft 278 kts 294°
2026-04-18 12:07 41.17970 -123.84858 7151 ft 276 kts 294°
2026-04-18 12:07 41.18759 -123.87169 6793 ft 275 kts 294°
2026-04-18 12:07 41.19539 -123.89464 6428 ft 274 kts 294°
2026-04-18 12:08 41.20268 -123.91781 6035 ft 273 kts 287°
2026-04-18 12:08 41.20576 -123.94254 5656 ft 273 kts 275°
2026-04-18 12:08 41.20731 -123.96762 5285 ft 272 kts 274°
2026-04-18 12:08 41.20866 -123.99282 4911 ft 271 kts 274°
2026-04-18 12:09 41.20993 -124.01768 4534 ft 270 kts 274°
2026-04-18 12:09 41.21116 -124.04238 4156 ft 269 kts 274°
2026-04-18 12:09 41.21235 -124.06671 4005 ft 260 kts 274°
2026-04-18 12:09 41.21325 -124.09096 3992 ft 264 kts 268°
2026-04-18 12:10 41.20881 -124.11404 3782 ft 259 kts 247°
2026-04-18 12:10 41.20123 -124.13558 3531 ft 261 kts 244°
2026-04-18 12:10 41.19326 -124.15729 3276 ft 253 kts 244°
2026-04-18 12:10 41.18578 -124.17739 3012 ft 235 kts 244°
2026-04-18 12:11 41.17841 -124.19587 2741 ft 223 kts 235°
2026-04-18 12:11 41.16618 -124.20757 2510 ft 216 kts 196°
2026-04-18 12:11 41.15146 -124.21023 2368 ft 217 kts 184°
2026-04-18 12:11 41.13613 -124.21090 2232 ft 219 kts 175°
2026-04-18 12:12 41.12137 -124.20666 2107 ft 218 kts 158°
2026-04-18 12:12 41.10809 -124.19765 2093 ft 214 kts 149°
2026-04-18 12:12 41.09512 -124.18794 2092 ft 216 kts 151°
2026-04-18 12:12 41.08178 -124.17879 2093 ft 217 kts 152°
2026-04-18 12:13 41.06855 -124.16984 2054 ft 205 kts 152°
2026-04-18 12:13 41.05643 -124.16160 1856 ft 184 kts 152°
2026-04-18 12:13 41.04644 -124.15481 1634 ft 141 kts 152°
2026-04-18 12:13 41.03804 -124.14907 1434 ft 131 kts 151°
2026-04-18 12:14 41.03003 -124.14360 1243 ft 128 kts 152°
2026-04-18 12:14 41.02218 -124.13826 1056 ft 127 kts 152°
2026-04-18 12:14 41.01437 -124.13294 870 ft 126 kts 151°
2026-04-18 12:14 41.00651 -124.12759 698 ft 126 kts 151°
2026-04-18 12:15 40.99884 -124.12237 534 ft 125 kts 151°
2026-04-18 12:15 40.99108 -124.11712 362 ft 125 kts 151°
2026-04-18 12:15 40.98335 -124.11186 204 ft 122 kts 150°
2026-04-18 12:15 40.97743 -124.10781 204 ft 61 kts 153°
2026-04-18 12:16 40.97515 -124.10626 212 ft 19 kts 153°
2026-04-18 12:16 40.97443 -124.10608 214 ft 10 kts 217°
2026-04-18 12:16 40.97404 -124.10703 213 ft 12 kts 244°
2026-04-18 12:16 40.97364 -124.10777 217 ft 8 kts 176°
2026-04-18 12:17 40.97364 -124.10740 216 ft 4 kts 63°
2026-04-18 12:17 40.97367 -124.10731 216 ft 0 kts 65°